Kincheloe, MI

4:33 AM EST on January 18, 2017 (GMT -0500)
Chippewa County International

Weather History for KCIU - February, 2014

Change the Weather History Date:

Sunday, February 16, 2014

  Actual Average Record
Temperature  
Mean Temperature 6 °F -  
Max Temperature 17 °F 26 °F 43 °F (1981)
Min Temperature -5 °F 5 °F -16 °F (1979)
Degree Days  
Heating Degree Days 59    
Moisture  
Dew Point 1 °F    
Average Humidity 78    
Maximum Humidity 100    
Minimum Humidity 45    
Precipitation  
Precipitation 0.01 in - - ()
Sea Level Pressure  
Sea Level Pressure 30.15 in    
Wind  
Wind Speed 4 mph (North)    
Max Wind Speed 12 mph    
Max Gust Speed -    
Visibility 8 miles    
Events      
Averages and records for this station are not official NWS values.
T = Trace of Precipitation, MM = Missing Value Source: NWS Daily Summary

Daily Weather History Graph

Daily Weather History Graph

Search for Another Location

Airport or City:

Trip Planner

Search our weather history database for the weather conditions in past years. The results will help you decide how hot, cold, wet, or windy it might be!

Date:

Astronomy

Feb. 16, 2014 Rise Set
Actual Time 7:39 AM EST 6:05 PM EST
Civil Twilight 7:08 AM EST 6:36 PM EST
Nautical Twilight 6:33 AM EST 7:11 PM EST
Astronomical Twilight 5:58 AM EST 7:45 PM EST
Moon 8:10 PM EST (2/16) 8:00 AM EST (2/16)
Length of Visible Light 11h 27m
Length of Day
10h 25m
Full, 97% of the Moon is Illuminated
Feb 16
Full
Feb 22
Last Quarter
Mar 1
New
Mar 8
First Quarter
Mar 16
Full

Hourly Weather History & Observations

Time (EST) Temp. Windchill Dew Point Humidity Pressure Visibility Wind Dir Wind Speed Gust Speed Precip Events Conditions
12:15 AM 8.6 °F - 6.8 °F 92% 29.98 in 1.2 mi Calm Calm - N/A   Overcast
12:35 AM 8.6 °F - 6.8 °F 92% 29.98 in 2.0 mi Calm Calm - N/A   Overcast
12:55 AM 8.6 °F - 6.8 °F 92% 29.98 in 2.5 mi Calm Calm - N/A   Overcast
1:15 AM 8.6 °F - 6.8 °F 92% 29.98 in 3.0 mi Calm Calm - N/A   Overcast
1:35 AM 6.8 °F - 6.8 °F 100% 29.99 in 2.0 mi Calm Calm - N/A   Overcast
1:55 AM 8.6 °F - 6.8 °F 92% 29.98 in 1.5 mi Calm Calm - N/A   Overcast
2:15 AM 8.6 °F 2.0 °F 6.8 °F 92% 29.98 in 1.5 mi North 3.5 mph - N/A   Overcast
2:35 AM 6.8 °F -0.1 °F 6.8 °F 100% 29.99 in 2.0 mi North 3.5 mph - N/A   Overcast
2:55 AM 6.8 °F -0.1 °F 6.8 °F 100% 29.99 in 2.0 mi NNE 3.5 mph - N/A   Overcast
3:15 AM 8.6 °F 2.0 °F 6.8 °F 92% 29.99 in 2.5 mi NNE 3.5 mph - N/A   Overcast
3:35 AM 8.6 °F 0.1 °F 6.8 °F 92% 29.99 in 7.0 mi NNE 4.6 mph - N/A   Overcast
3:55 AM 8.6 °F 2.0 °F 6.8 °F 92% 30.00 in 4.0 mi NNE 3.5 mph - N/A   Overcast
4:15 AM 8.6 °F 0.1 °F 6.8 °F 92% 30.00 in 3.0 mi NNE 4.6 mph - N/A   Overcast
4:35 AM 6.8 °F -0.1 °F 6.8 °F 100% 30.01 in 4.0 mi NNE 3.5 mph - N/A   Overcast
4:55 AM 6.8 °F -2.0 °F 5.0 °F 92% 30.01 in 10.0 mi NNE 4.6 mph - N/A   Overcast
5:15 AM 6.8 °F -2.0 °F 5.0 °F 92% 30.02 in 10.0 mi NE 4.6 mph - N/A   Mostly Cloudy
5:35 AM 6.8 °F -4.8 °F 5.0 °F 92% 30.02 in 7.0 mi NE 6.9 mph - N/A   Overcast
5:55 AM 6.8 °F -4.8 °F 5.0 °F 92% 30.03 in 8.0 mi NE 6.9 mph - N/A   Overcast
6:15 AM 6.8 °F -4.8 °F 5.0 °F 92% 30.03 in 8.0 mi NE 6.9 mph - N/A   Mostly Cloudy
6:35 AM 6.8 °F -5.9 °F 5.0 °F 92% 30.03 in 8.0 mi NE 8.1 mph - N/A   Mostly Cloudy
6:55 AM 6.8 °F -5.9 °F 5.0 °F 92% 30.04 in 7.0 mi NE 8.1 mph - N/A   Overcast
7:15 AM 5.0 °F -10.0 °F 3.2 °F 92% 30.05 in 10.0 mi NE 10.4 mph - N/A   Mostly Cloudy
7:35 AM 5.0 °F -9.1 °F 3.2 °F 92% 30.06 in 10.0 mi NE 9.2 mph - N/A   Clear
7:55 AM 5.0 °F -9.1 °F 3.2 °F 92% 30.07 in 10.0 mi NE 9.2 mph - N/A   Clear
8:15 AM 3.2 °F -9.1 °F 1.4 °F 92% 30.09 in 10.0 mi NNE 6.9 mph - N/A   Clear
8:35 AM 3.2 °F -7.8 °F 1.4 °F 92% 30.10 in 10.0 mi NE 5.8 mph - N/A   Partly Cloudy
8:55 AM 6.8 °F -3.5 °F 3.2 °F 85% 30.11 in 10.0 mi NNE 5.8 mph - N/A   Scattered Clouds
9:15 AM 6.8 °F -3.5 °F 3.2 °F 85% 30.12 in 10.0 mi NNE 5.8 mph - N/A   Scattered Clouds
9:35 AM 6.8 °F -6.9 °F 3.2 °F 85% 30.12 in 10.0 mi NE 9.2 mph - N/A   Partly Cloudy
9:55 AM 8.6 °F -6.3 °F 1.4 °F 73% 30.13 in 10.0 mi NNE 11.5 mph - N/A   Partly Cloudy
10:15 AM 8.6 °F -4.7 °F 1.4 °F 73% 30.14 in 10.0 mi NNE 9.2 mph - N/A   Clear
10:35 AM 8.6 °F -3.7 °F 1.4 °F 73% 30.15 in 10.0 mi NNE 8.1 mph - N/A   Clear
10:55 AM 10.4 °F -3.3 °F -0.4 °F 62% 30.15 in 10.0 mi NE 10.4 mph - N/A   Clear
11:15 AM 10.4 °F -1.5 °F 1.4 °F 67% 30.16 in 10.0 mi NNE 8.1 mph - N/A   Clear
11:35 AM 12.2 °F 4.3 °F -0.4 °F 57% 30.17 in 10.0 mi North 4.6 mph - N/A   Clear
11:55 AM 12.2 °F 1.7 °F -0.4 °F 57% 30.17 in 8.0 mi NNE 6.9 mph - N/A   Clear
12:15 PM 14.0 °F 6.5 °F -0.4 °F 53% 30.18 in 10.0 mi NNE 4.6 mph - 0.01 in   Clear
12:35 PM 15.8 °F 8.6 °F -0.4 °F 49% 30.18 in 10.0 mi NNE 4.6 mph - 0.01 in   Clear
12:55 PM 15.8 °F 8.6 °F -0.4 °F 49% 30.18 in 10.0 mi North 4.6 mph - 0.01 in   Clear
1:15 PM 15.8 °F 7.2 °F -0.4 °F 49% 30.17 in 10.0 mi North 5.8 mph - N/A   Clear
1:35 PM 17.6 °F 9.3 °F -0.4 °F 45% 30.17 in 10.0 mi North 5.8 mph - N/A   Clear
1:55 PM 17.6 °F 9.3 °F -0.4 °F 45% 30.17 in 10.0 mi North 5.8 mph - N/A   Clear
2:15 PM 17.6 °F 7.3 °F 1.4 °F 49% 30.18 in 10.0 mi North 8.1 mph - N/A   Clear
2:35 PM 15.8 °F 7.2 °F 1.4 °F 53% 30.19 in 10.0 mi NW 5.8 mph - N/A   Clear
2:55 PM 17.6 °F 9.3 °F 1.4 °F 49% 30.19 in 10.0 mi NNW 5.8 mph - N/A   Clear
3:15 PM 15.8 °F 7.2 °F 1.4 °F 53% 30.19 in 10.0 mi North 5.8 mph - N/A   Clear
3:35 PM 15.8 °F 5.1 °F 1.4 °F 53% 30.20 in 10.0 mi NNW 8.1 mph - N/A   Clear
3:55 PM 15.8 °F 4.2 °F 1.4 °F 53% 30.21 in 10.0 mi NNW 9.2 mph - N/A   Clear
4:15 PM 14.0 °F 2.0 °F 1.4 °F 57% 30.22 in 10.0 mi NNW 9.2 mph - N/A   Clear
4:35 PM 12.2 °F 0.7 °F 1.4 °F 62% 30.22 in 10.0 mi NNW 8.1 mph - N/A   Clear
4:55 PM 12.2 °F 1.7 °F -0.4 °F 57% 30.23 in 10.0 mi NNW 6.9 mph - N/A   Clear
5:15 PM 10.4 °F -1.5 °F -0.4 °F 62% 30.24 in 10.0 mi NW 8.1 mph - N/A   Clear
5:35 PM 10.4 °F -0.4 °F -0.4 °F 62% 30.25 in 10.0 mi NW 6.9 mph - N/A   Clear
5:55 PM 8.6 °F -1.3 °F -0.4 °F 67% 30.26 in 10.0 mi NW 5.8 mph - N/A   Clear
6:15 PM 8.6 °F -1.3 °F -0.4 °F 67% 30.27 in 10.0 mi NW 5.8 mph - N/A   Clear
6:35 PM 6.8 °F - -2.2 °F 67% 30.27 in 10.0 mi Calm Calm - N/A   Clear
6:55 PM 5.0 °F -5.6 °F -0.4 °F 78% 30.28 in 10.0 mi NW 5.8 mph - N/A   Clear
7:15 PM 3.2 °F -6.2 °F -0.4 °F 85% 30.30 in 10.0 mi WNW 4.6 mph - N/A   Clear
7:35 PM 3.2 °F -6.2 °F -2.2 °F 78% 30.30 in 10.0 mi NNW 4.6 mph - N/A   Clear
7:55 PM 1.4 °F -9.9 °F -4.0 °F 78% 30.30 in 10.0 mi NNW 5.8 mph - N/A   Clear
8:15 PM -0.4 °F -12.0 °F -4.0 °F 85% 30.30 in 10.0 mi NNW 5.8 mph - N/A   Clear
8:35 PM 1.4 °F -9.9 °F -2.2 °F 85% 30.30 in 10.0 mi NNW 5.8 mph - N/A   Clear
8:55 PM 1.4 °F -9.9 °F -2.2 °F 85% 30.30 in 10.0 mi North 5.8 mph - N/A   Clear
9:15 PM 1.4 °F -8.3 °F -2.2 °F 85% 30.30 in 10.0 mi North 4.6 mph - N/A   Clear
9:35 PM 1.4 °F -9.9 °F -2.2 °F 85% 30.30 in 10.0 mi North 5.8 mph - N/A   Clear
9:55 PM 1.4 °F -8.3 °F -2.2 °F 85% 30.31 in 10.0 mi North 4.6 mph - N/A   Clear
10:15 PM -0.4 °F -8.3 °F -2.2 °F 92% 30.30 in 10.0 mi North 3.5 mph - N/A   Clear
10:35 PM -2.2 °F - -4.0 °F 92% 30.30 in 10.0 mi Calm Calm - N/A   Clear
10:55 PM -2.2 °F - -5.8 °F 85% 30.31 in 10.0 mi Calm Calm - N/A   Clear
11:15 PM -4.0 °F - -7.6 °F 85% 30.32 in 10.0 mi Calm Calm - N/A   Clear
11:35 PM -5.8 °F - -7.6 °F 92% 30.32 in 10.0 mi Calm Calm - N/A   Clear
11:55 PM -5.8 °F - -9.4 °F 84% 30.32 in 10.0 mi Calm Calm - N/A   Clear